Date String (YYYY-MM-DD hh:mm:ss) UTC,Instrument flags,Ambient pressure (hPa),Sample flow (lpm),Bypass flow (lpm),Sample temperature (°C),Ambient temperature (°C),ASC tube jacket temperature (°C),LED temperature (°C),Box temperature (°C),Sample RH (%),Span deviation,Mass concentration (μg/m³),Mass concentration (μg/m³),Mass concentration (μg/m³)
DateTimeUTC,F1_M11,P_M11,Q1_M11,Q2_M11,T1_M11,T2_M11,T3_M11,T4_M11,T5_M11,U1_M11,ZSPAN_M11,X0_M11,X2_M11,X1_M11
2022-07-07 20:00:00,,0829.1,4.99,0.00,29.1,27.3,00.0,37.9,31.0,30.7,0000.0,0010.39,0003.84,0003.23
2022-07-07 20:01:00,,0829.0,5.01,0.00,29.1,27.5,00.0,37.9,31.0,30.2,0000.0,0010.25,0003.89,0003.27
2022-07-07 20:02:00,,0828.8,5.00,0.00,29.2,27.7,00.0,37.9,31.1,30.9,0000.0,0010.13,0003.94,0003.32
2022-07-07 20:03:00,,0828.8,5.01,0.00,29.2,27.9,00.0,37.9,31.2,30.6,0000.0,0009.83,0003.99,0003.34
2022-07-07 20:04:00,,0828.9,5.00,0.00,29.2,28.0,00.0,37.9,31.2,30.6,0000.0,0009.57,0003.97,0003.36
2022-07-07 20:05:00,,0829.1,5.01,0.00,29.2,27.5,00.0,37.9,31.2,29.9,0000.0,0009.61,0003.97,0003.38
2022-07-07 20:06:00,,0828.7,4.99,0.00,29.2,27.0,00.0,37.8,31.1,30.1,0000.0,0010.01,0004.04,0003.41
2022-07-07 20:07:00,,0828.9,5.00,0.00,29.2,26.8,00.0,37.8,31.0,30.1,0000.0,0010.26,0004.04,0003.43
2022-07-07 20:08:00,,0828.8,5.00,0.00,29.1,26.9,00.0,37.8,30.9,30.3,0000.0,0010.22,0004.10,0003.46
2022-07-07 20:09:00,,0829.1,5.00,0.00,29.1,27.1,00.0,37.8,30.9,30.5,0000.0,0010.18,0004.15,0003.48
2022-07-07 20:10:00,,0828.7,4.99,0.00,29.1,27.3,00.0,37.8,31.0,31.4,0000.0,0011.15,0004.17,0003.50
2022-07-07 20:11:00,,0828.8,4.99,0.00,29.1,27.5,00.0,37.8,31.0,31.1,0000.0,0011.23,0004.22,0003.52
2022-07-07 20:12:00,,0829.0,5.00,0.00,29.1,27.7,00.0,37.9,31.1,30.7,0000.0,0011.39,0004.20,0003.51
2022-07-07 20:13:00,,0828.9,5.00,0.00,29.2,27.9,00.0,37.9,31.2,29.8,0000.0,0011.56,0004.22,0003.50
2022-07-07 20:14:00,,0828.7,5.00,0.00,29.2,28.0,00.0,37.9,31.2,28.5,0000.0,0011.47,0004.18,0003.49
2022-07-07 20:15:00,,0828.7,5.00,0.00,29.2,27.9,00.0,37.9,31.2,27.1,0000.0,0011.31,0004.12,0003.47
2022-07-07 20:16:00,,0828.9,5.00,0.00,29.2,27.3,00.0,37.8,31.2,27.2,0000.0,0011.23,0004.09,0003.43
2022-07-07 20:17:00,,0829.0,5.00,0.00,29.2,26.9,00.0,37.8,31.1,27.3,0000.0,0010.86,0004.02,0003.40
2022-07-07 20:18:00,,0828.9,4.99,0.00,29.2,26.9,00.0,37.8,31.0,26.8,0000.0,0010.18,0004.00,0003.38
2022-07-07 20:19:00,,0828.8,5.01,0.00,29.1,27.0,00.0,37.8,30.9,25.7,0000.0,0009.69,0003.96,0003.34
2022-07-07 20:20:00,,0829.0,5.00,0.00,29.1,27.2,00.0,37.8,30.9,25.9,0000.0,0009.80,0003.92,0003.29
2022-07-07 20:21:00,,0829.0,4.99,0.00,29.1,27.4,00.0,37.8,31.0,25.8,0000.0,0009.03,0003.84,0003.23
2022-07-07 20:22:00,,0829.0,4.99,0.00,29.1,27.6,00.0,37.9,31.1,24.9,0000.0,0008.87,0003.75,0003.17
2022-07-07 20:23:00,,0829.0,5.00,0.00,29.1,27.8,00.0,37.9,31.1,24.9,0000.0,0008.77,0003.69,0003.11
2022-07-07 20:24:00,,0828.8,5.00,0.00,29.2,28.0,00.0,37.9,31.2,25.0,0000.0,0008.59,0003.60,0003.01
2022-07-07 20:25:00,,0828.8,5.00,0.00,29.2,28.1,00.0,37.9,31.3,25.4,0000.0,0008.84,0003.57,0002.93
2022-07-07 20:26:00,,0829.1,4.99,0.00,29.3,27.7,00.0,37.9,31.2,25.0,0000.0,0009.10,0003.61,0002.89
2022-07-07 20:27:00,,0829.2,5.00,0.00,29.2,27.1,00.0,37.8,31.1,25.0,0000.0,0009.15,0003.60,0002.88
2022-07-07 20:28:00,,0829.0,5.01,0.00,29.2,26.8,00.0,37.8,31.0,25.0,0000.0,0009.16,0003.61,0002.85
2022-07-07 20:29:00,,0828.9,5.01,0.00,29.1,26.8,00.0,37.8,30.9,25.4,0000.0,0008.96,0003.56,0002.80
2022-07-07 20:30:00,,0829.0,4.99,0.00,29.1,27.0,00.0,37.8,30.9,25.4,0000.0,0008.98,0003.56,0002.77
2022-07-07 20:31:00,,0829.1,4.99,0.00,29.1,27.2,00.0,37.8,30.9,25.6,0000.0,0009.25,0003.52,0002.76
2022-07-07 20:32:00,,0829.0,5.00,0.00,29.1,27.4,00.0,37.8,31.0,25.2,0000.0,0008.89,0003.54,0002.76
2022-07-07 20:33:00,,0829.1,5.00,0.00,29.1,27.6,00.0,37.8,31.0,25.3,0000.0,0008.72,0003.52,0002.76
2022-07-07 20:34:00,,0829.2,5.01,0.00,29.1,27.8,00.0,37.8,31.1,25.4,0000.0,0008.16,0003.49,0002.74
2022-07-07 20:35:00,,0829.1,5.00,0.00,29.2,28.0,00.0,37.9,31.2,25.5,0000.0,0008.20,0003.48,0002.73
2022-07-07 20:36:00,,0829.1,5.00,0.00,29.2,28.1,00.0,37.9,31.2,25.4,0000.0,0007.97,0003.47,0002.72
2022-07-07 20:37:00,,0828.9,5.00,0.00,29.2,28.2,00.0,37.9,31.3,25.2,0000.0,0008.04,0003.45,0002.73
2022-07-07 20:38:00,,0829.4,5.00,0.00,29.3,27.6,00.0,37.9,31.2,25.4,0000.0,0008.56,0003.52,0002.75
2022-07-07 20:39:00,,0829.0,5.02,0.00,29.2,27.1,00.0,37.8,31.1,25.1,0000.0,0008.80,0003.58,0002.76
2022-07-07 20:40:00,,0828.9,5.00,0.00,29.2,26.9,00.0,37.8,31.1,25.3,0000.0,0009.64,0003.61,0002.78
2022-07-07 20:41:00,,0829.0,5.00,0.00,29.1,26.9,00.0,37.8,30.9,25.5,0000.0,0009.87,0003.59,0002.81
2022-07-07 20:42:00,,0829.1,5.00,0.00,29.1,27.1,00.0,37.8,30.9,25.6,0000.0,0010.13,0003.62,0002.81
2022-07-07 20:43:00,,0829.1,5.00,0.00,29.1,27.3,00.0,37.8,31.0,26.2,0000.0,0010.15,0003.63,0002.81
2022-07-07 20:44:00,,0829.1,5.00,0.00,29.1,27.5,00.0,37.8,31.0,26.5,0000.0,0010.19,0003.67,0002.82
2022-07-07 20:45:00,,0829.2,4.99,0.00,29.1,27.7,00.0,37.8,31.1,26.6,0000.0,0010.19,0003.69,0002.84
2022-07-07 20:46:00,,0829.2,5.00,0.00,29.2,27.9,00.0,37.9,31.1,26.4,0000.0,0010.20,0003.75,0002.86
2022-07-07 20:47:00,,0829.2,5.00,0.00,29.2,28.0,00.0,37.9,31.2,26.0,0000.0,0010.46,0003.75,0002.86
2022-07-07 20:48:00,,0829.2,5.01,0.00,29.2,28.2,00.0,37.9,31.2,25.8,0000.0,0011.08,0003.74,0002.85
2022-07-07 20:49:00,,0829.2,4.99,0.00,29.3,28.2,00.0,37.9,31.3,25.9,0000.0,0011.13,0003.72,0002.84
2022-07-07 20:50:00,,0829.3,5.00,0.00,29.3,27.5,00.0,37.9,31.2,25.9,0000.0,0010.72,0003.62,0002.82
2022-07-07 20:51:00,,0829.3,5.01,0.00,29.3,27.0,00.0,37.8,31.1,25.6,0000.0,0010.75,0003.59,0002.80
2022-07-07 20:52:00,,0829.3,4.99,0.00,29.2,26.9,00.0,37.8,31.1,26.0,0000.0,0010.51,0003.61,0002.78
2022-07-07 20:53:00,,0829.3,5.01,0.00,29.2,27.0,00.0,37.8,31.0,25.6,0000.0,0010.19,0003.62,0002.77
2022-07-07 20:54:00,,0829.2,5.01,0.00,29.1,27.2,00.0,37.8,31.0,25.3,0000.0,0009.80,0003.63,0002.76
2022-07-07 20:55:00,,0829.2,5.01,0.00,29.1,27.4,00.0,37.9,31.0,24.8,0000.0,0010.13,0003.59,0002.72
2022-07-07 20:56:00,,0829.2,4.99,0.00,29.1,27.6,00.0,37.9,31.1,26.8,0000.0,0010.29,0003.59,0002.71
2022-07-07 20:57:00,,0829.2,5.00,0.00,29.2,27.8,00.0,37.9,31.1,26.7,0000.0,0010.23,0003.56,0002.70
2022-07-07 20:58:00,,0829.3,5.00,0.00,29.2,27.9,00.0,37.9,31.2,27.5,0000.0,0010.39,0003.61,0002.70
2022-07-07 20:59:00,,0829.2,5.00,0.00,29.2,28.1,00.0,37.9,31.2,27.9,0000.0,0009.76,0003.70,0002.72
